Regional Weather Roundup
Issued by NWS Jackson, KY

Home | Current Version | Previous Version | Graphics & Text | Print | Product List | Glossary On
Versions: 1 2 3 4 5 6 7 8 9 10 11 12 13 14 15 16 17 18 19 20 21 22 23 24 25 26 27 28 29 30 31 32 33 34 35 36 37 38 39 40 41 42 43 44 45 46 47 48 49 50
000
ASUS43 KJKL 172219
RWRJKL

EAST KENTUCKY HOURLY WEATHER ROUNDUP
NATIONAL WEATHER SERVICE JACKSON KY
600 PM EDT WED SEP 17 2014

NOTE: "FAIR" INDICATES FEW OR NO CLOUDS BELOW 12,000 FEET WITH
NO SIGNIFICANT WEATHER AND/OR OBSTRUCTIONS TO VISIBILITY.

* THESE REPORTS ARE NOT UNDER NWS QUALITY CONTROL AND MAY NOT
  REPORT WEATHER SUCH AS PRECIPITATION AND FOG.

KYZ079-080-083-085-087-088-110-112-115-119-120-172300
...EASTERN KENTUCKY...

CITY           SKY/WX    TMP DP  RH WIND       PRES   REMARKS
JACKSON        MOSUNNY   69  52  54 VRB3      29.99F
LONDON         SUNNY     71  51  49 N5        29.99S
MONTICELLO*    SUNNY     73  54  51 N5        29.99F
WILLIAMSBURG*    N/A    N/A N/A N/A CALM        N/A
MIDDLESBORO*   MOSUNNY   72  56  55 NW7       29.97S
HARLAN APT*    CLEAR     70  54  56 MISG      29.97S
HAZARD APT*    CLEAR     70  55  60 CALM      29.99
BLACK MTN*       N/A     59  54  82 N3          N/A
PIKEVILLE APT* MOSUNNY   66  55  68 N5        29.99S
BIG SANDY*     PTCLDY    66  55  67 CALM      29.99S
MOREHEAD APT*  CLEAR     70  50  49 CALM      30.00F
$$

KYZ035-036-041-042-044-050-067-078-099-172300
...CENTRAL KENTUCKY...

CITY           SKY/WX    TMP DP  RH WIND       PRES   REMARKS
MT STERLING*   MOSUNNY   68  54  60 NW3       30.00F
FLEMING/MASON* SUNNY     66  50  55 NW3       30.00S
DANVILLE*      SUNNY     70  50  49 NW3       29.99F
RICHMOND*      SUNNY     70  52  52 CALM      29.97F
LEXINGTON      MOSUNNY   71  53  52 NE6       29.98F
FRANKFORT      SUNNY     69  51  52 NW3       29.98S
$$

KYZ091>093-OHZ055-061-077-WVZ005-015-034-035-042-172300
...SOUTHERN OHIO/WEST VIRGINIA...

CITY           SKY/WX    TMP DP  RH WIND       PRES   REMARKS
COVINGTON      MOSUNNY   67  49  52 NW6       30.00F
COLUMBUS       MOSUNNY   71  45  39 CALM      29.98F
DAYTON         MOSUNNY   66  48  52 SW5       30.01S
WILMINGTON     MOSUNNY   66  47  50 SW3       30.00S
HUNTINGTON     CLOUDY    69  55  60 CALM      29.97S
CHARLESTON     PTSUNNY   70  56  61 NW3       29.97R
PINEVILLE*     SUNNY     70  62  77 MISG      30.02S
BECKLEY        CLOUDY    67  54  63 E6        29.99F
BLUEFIELD      MOSUNNY   66  54  65 CALM      30.01S
$$

VAZ002-007-008-TNZ017-027-036-066-071-172300
...SOUTHWEST VIRGINIA/EAST TENNESSEE...

CITY           SKY/WX    TMP DP  RH WIND       PRES   REMARKS
WISE*          PTSUNNY   68  54  60 N7        30.02S
JONESVILLE*    PTCLDY    73  55  53 CALM      29.98S
ABINGDON*      PTSUNNY   74  58  58 NW7       29.97S
BRISTOL        MOSUNNY   75  53  46 NW8       29.95R
KNOXVILLE      MOSUNNY   77  50  38 W7        29.94R
OAK RIDGE      PTSUNNY   76  56  49 E3        29.96R
CROSSVILLE     PTSUNNY   69  52  54 W6        30.01R
NASHVILLE      CLOUDY    72  56  57 E5        29.98F
$$

...KEY TO REMARKS...
VSB - VISIBILITY IN MILES
WCI - WIND CHILL INDEX
HX  - HEAT INDEX

$$


USA.gov is the U.S. government's official web portal to all federal, state and local government web resources and services.